Regional Weather Roundup
Issued by NWS Upton, NY

Current Version | Previous Version | Text Only | Print | Product List | Glossary Off
Versions: 1 2 3 4 5 6 7 8 9 10 11 12 13 14 15 16 17 18 19 20 21 22 23 24 25 26 27 28 29 30 31 32 33 34 35 36 37 38 39 40 41 42 43 44 45 46 47 48 49 50
000 ASUS41 KOKX 220908 RWROKX REGIONAL WEATHER ROUNDUP NATIONAL WEATHER SERVICE NEW YORK NY 500 AM EDT FRI MAY 22 2015 NOTE: "FAIR" INDICATES FEW OR NO CLOUDS BELOW 12,000 FEET WITH NO SIGNIFICANT WEATHER AND/OR OBSTRUCTIONS TO VISIBILITY. NYZ071-072-176-178-NJZ106-104-221000- NEW YORK CITY METRO AREA CITY SKY/WX TMP DP RH WIND PRES REMARKS CENTRAL PARK CLOUDY 56 43 61 CALM 29.88S LAGUARDIA APRT CLOUDY 57 44 62 NW9 29.86R KENNEDY INTL CLOUDY 57 43 59 NW8 29.86S NEWARK/LIBERTY MOCLDY 55 45 68 W6 29.87R BRNX BOT. GARD N/A 54 43 66 W5 29.89R TETERBORO CLOUDY 56 43 61 NW6 29.86R $$ NYZ177-179-078>081-221000- LONG ISLAND NEW YORK CITY SKY/WX TMP DP RH WIND PRES REMARKS FARMINGDALE MOCLDY 53 46 77 NW3 29.85S ISLIP CLOUDY 51 48 89 NW5 29.83F SHIRLEY CLOUDY 49 46 90 NW5 29.85S WESTHAMPTON CLOUDY 49 47 93 NW5 29.85F MONTAUK POINT N/A 52 49 89 CALM 29.86R $$ NYZ052-065-067-221000- HUDSON VALLEY CITY SKY/WX TMP DP RH WIND PRES REMARKS WHITE PLAINS MOCLDY 53 43 68 N10 29.85R NEWBURGH PTCLDY 50 46 87 NW8 29.88R MONTGOMERY MOCLDY 48 45 89 SE3 29.87R POUGHKEEPSIE CLOUDY 51 47 86 CALM 29.85F ALBANY PTCLDY 52 39 61 S3 29.84R $$ NJZ001-105-106-008-010-013-015-019>022-104-221000- NEW JERSEY CITY SKY/WX TMP DP RH WIND PRES REMARKS NEWARK/LIBERTY MOCLDY 55 45 68 W6 29.87R TETERBORO CLOUDY 56 43 61 NW6 29.86R CALDWELL MOCLDY 52 44 74 NW5 29.88R MORRISTOWN MOCLDY 55 43 62 CALM 29.89R SOMERVILLE CLEAR 47 44 90 CALM 29.88R SUSSEX PTCLDY 49 42 77 CALM 29.90R ANDOVER N/A 47 45 93 CALM 29.89R TRENTON CLEAR 49 44 83 NW5 29.89R MILLVILLE CLEAR 49 47 93 W9 29.92R FOG ATLANTIC CITY CLEAR 49 46 90 W9 29.90R FOG WRIGHTSTOWN CLEAR 49 48 95 NW6 29.87R TOMS RIVER MOCLDY 50 46 87 NW7 29.88S BELMAR CLOUDY 50 43 76 NW8 29.88R $$ PAZ047>061-062-071-221000- EASTERN PENNSYLVANIA CITY SKY/WX TMP DP RH WIND PRES REMARKS PHILADELPHIA PTCLDY 53 45 74 NW8 29.93R ALLENTOWN CLEAR 49 43 80 W6 29.92R SCRANTON CLEAR 46 42 86 SW5 29.91R $$ CTZ002-004>006-009-010-012-RIZ004-006-007-MAZ004-011-015-221000- SOUTHERN NEW ENGLAND IN CT CITY SKY/WX TMP DP RH WIND PRES REMARKS BRADLEY INTL CLOUDY 54 45 71 CALM 29.83R HARTFORD CLOUDY 53 44 71 S5 29.84S DANBURY CLOUDY 52 42 69 W3 29.87R WTRBRY/OXFORD CLOUDY 50 43 76 N3 29.86S BRIDGEPORT CLOUDY 54 47 77 W3 29.85R MERIDEN CLOUDY 51 45 79 E3 29.85R NEW HAVEN CLOUDY 52 46 80 CALM 29.84F CHESTER CLOUDY 48 48 100 CALM 29.85S GROTON LGT RAIN 50 47 89 NW3 29.83F WILLIMANTIC CLOUDY 51 44 77 CALM 29.84S IN RI CITY SKY/WX TMP DP RH WIND PRES REMARKS PROVIDENCE LGT RAIN 50 48 93 SW5 29.84S BLOCK ISLAND CLOUDY 48 46 93 CALM 29.85S WESTERLY LGT RAIN 50 49 96 CALM 29.85S IN MA CITY SKY/WX TMP DP RH WIND PRES REMARKS BOSTON LGT RAIN 53 42 66 SW9 29.82S WORCESTER CLOUDY 50 42 74 W13 29.81S WESTFIELD CLOUDY 54 42 64 NW5 29.83S PROVINCETOWN CLOUDY 52 46 82 S10 29.84S NANTUCKET LGT RAIN 50 47 89 E9 29.83S $$ ANZ330-335-338-340-345-350-353-355-221000- COASTAL MARINE OBSERVATIONS STATION/POSITION TIME SKY/WX TEMP WIND PRES VSBY WAVE AIR SEA DIR/SP/G HT/PER (UTC) (F) (DEG/KT/KT) (MB) (MI) (FT/S) NY HARB ENTRANCE 0850 55 56 300/ 14/ 16 1010.5 1/ 8 4S FIRE IS 0803 53 N/A 1/ 8 20S FIRE ISLAND 0850 53 54 310/ 12/ 14 1010.3 1/ 8 GREAT SOUTH BAY 0800 54 63 300/ 8/ 10 N/A 23SW MTP 0850 49 53 320/ 8/ 8 1010.1 1/ 8 HUDSON CANYON NOT AVBL KINGS POINT 0800 55 53 340/ 5/ 7 1010.2 CENTRAL LI SOUND 0830 52 51 250/ 6/ 8 N/A EASTERN LI SOUND 0800 50 270/ 6/ 6 N/A ROBBINS REEF 0800 55 310/ 6/ 8 1009.8 $$ >>>>>>>>>>>>>>>>>>>>>>>>>>>> KEY <<<<<<<<<<<<<<<<<<<<<<<<<<< > < > SKY/WX - SKY CONDITION/PRESENT WEATHER < > TMP - TEMPERATURE IN FAHRENHEIT < > DP - DEWPOINT IN FAHRENHEIT < > RH - RELATIVE HUMIDITY IN PERCENT < > WIND - DIRECTION AND SPEED IN MPH < > PRES - MEAN SEA LEVEL PRESSURE IN INCHES OF HG < > WCI - WIND CHILL INDEX < > VSB - VISIBILITY IN MILES < > HX - HEAT INDEX < > TC - TEMPERATURE IN CELSIUS < > VRB - VARIABLE WIND DIRECTION < > < >>>>>>>>>>>>>>>>>>>>>>>>>>>> KEY <<<<<<<<<<<<<<<<<<<<<<<<<<<

USA.gov is the U.S. government's official web portal to all federal, state and local government web resources and services.